PGUM

Guam

Airport
ICAO code
PGUM
Summary
ICAO Region
APAC
ICAO Territory
Location

Barrigada and Tamuning,

Coordinates
13° 29' 0" N , 144° 47' 46" E
KCC
Metar
PGUM 161254Z 07005KT 10SM CLR 27/24 A2990 RMK AO2 SLP118 T02720239

Description

International airport serving Guam.

Climatology

Tropical Savanna climate (Köppen climate classification Aw) - monthly mean temperature above 18°C in every month of the year and a pronounced dry season (December to June).

Guam is affected by Tropical Revolving Storms during the wet season from July to November.

Runways

Designator Length Width Surface Rops
06R/24L 2439 46 ASP Yes/Yes
06L/24R 3053 46 PEM Yes/Yes

SKYbrary Partners:

Safety knowledge contributed by: